Flag for U.S.A. Weather past 2 weeks in Oakland, California, U.S.A.

Now
69 °F

Passing clouds.


Feels Like: 69 °F
Forecast: 47 / 64 °F
Wind: 9 mph from Northwest

Location: Metro Oakland International Airport

Current Time: Jan 31, 2015 at 1:52:18 PM

Latest Report: Jan 31, 2015 at 12:53 PM


Visibility: 10 mi

Pressure: 29.97 "Hg

Humidity: 26%

Dew point: 33 °F

Location of OaklandLocation

Historic Weather in Oakland — Graph

°F

Oakland temperature yesterday

Maximum temperature yesterday: 61 °F (at 2:53 PM)
Minimum temperature yesterday: 46 °F (at 2:53 AM)
Average temperature yesterday: 53 °F

Past Weeks' High & Low Weather Summary

 TemperatureHumidityPressure
High69 °F (Jan 24, 12:53 PM)97% (Jan 18, 7:53 AM)30.37 "Hg (Jan 18, 7:53 AM)
Low41 °F (Jan 23, 3:53 AM)22% (Jan 31, 11:53 AM)29.91 "Hg (Jan 30, 3:53 PM)
Average53 °F78%30.16 "Hg
* Reported Jan 16 11:53 AM — Jan 31 11:53 AM, Oakland, Weather by CustomWeather, © 2014

Note: Actual official high and low records may vary slightly from our data, if they occured in-between our weather recording intervals... More about our weather records

Advertising

Oakland weather history for previous 24 hours

 ConditionsComfort  
Time TempWeatherWind HumidityBarometerVisibility
11:53 AM
Jan 31
68 °FPassing clouds.7 mph22%29.98 "Hg10 mi
10:53 AM64 °FPassing clouds.7 mph33%30.01 "Hg10 mi
9:53 AM65 °FSunny.6 mph28%29.98 "Hg10 mi
8:53 AM62 °FSunny.No wind48%29.97 "Hg10 mi
7:53 AM52 °FSunny.No wind59%29.95 "Hg10 mi
6:53 AM51 °FClear.No wind69%29.94 "Hg10 mi
5:53 AM52 °FClear.8 mph86%29.92 "Hg10 mi
4:53 AM45 °FClear.6 mph97%29.91 "Hg10 mi
3:53 AM46 °FFog.5 mph93%29.91 "Hg10 mi
2:53 AM49 °FFog.3 mph93%29.92 "Hg7 mi
1:53 AM47 °FPassing clouds.No wind90%29.92 "Hg10 mi
12:53 AM46 °FFog.3 mph93%29.93 "Hg10 mi
11:53 PM
Jan 30
48 °FClear.No wind89%29.93 "Hg10 mi
10:53 PM48 °FFog.3 mph93%29.93 "Hg5 mi
9:53 PM49 °FFog.3 mph97%29.93 "Hg6 mi
8:53 PM54 °FPassing clouds.3 mph93%29.93 "Hg7 mi
7:53 PM55 °FClear.7 mph87%29.93 "Hg10 mi
6:53 PM55 °FClear.6 mph87%29.93 "Hg10 mi
5:53 PM56 °FClear.8 mph84%29.93 "Hg10 mi
4:53 PM59 °FSunny.12 mph75%29.91 "Hg10 mi
3:53 PM61 °FSunny.15 mph67%29.91 "Hg10 mi
2:53 PM61 °FSunny.3 mph67%29.92 "Hg10 mi
1:53 PM57 °FSunny.3 mph78%29.93 "Hg10 mi
Weather by CustomWeather, © 2014

See weather overviewHow to use our weather pages